Ana Sayfa
METAR-TAF:

METAR-TAF

Havaalanları :

Base Presidente Eduardo Frei Montalva, Şili

Enlem: 62-11-28S, Boylam: 58-59-11W, yükseklik: 45 m

Güncel hava durumu gözlemi

Rapor saat 05:00 UTC de 38 dakika önce yapıldı.
Rüzgar doğudan 28 kt
Sıcaklık -2°C
Nem 86%
Basınç 980 hPa
Görüş mesafesi 10 km veya daha fazla
2000 ft yükseklikte parçalı bulutlu
3000 ft yükseklikte çok bulutlu
hafif kar sağanakları

METAR: SCRM 270500Z 10028KT 9999 -SHSN SCT020 OVC030 M02/M04 Q0980 NOSIG

Saat: 02:38 (05:38 UTC)


TAF: eksik

4.000'den fazla havaalanı için hava durumu gözlemleri ve tahminleri (METAR ve TAF raporları).

Kullanılabilir istasyonlar harita üzerinde sarı ve kırmızı noktalarla gösterilir.

İstasyonun adını görmek için fareyi noktanın üzerinde gezdirin.

Sonrasında hava gözlem ve tahminlerini görmek için tıklayın.

Haritayı değiştirmek için: yaklaştırmak için siyah artı işaretli yeşil düğmeye ve uzaklaştırmak için de eksi işaretli düğmeye hızla tıklayın; bitişik haritalar için yeşil okları kullanın.


METAR-TAF: